Showing default

ROCK, 60474

Orbit data source: Space-Track

ROCK, 60474 is an American payload satellite in SSO that was launched on Fri, 16 Aug 2024 UTC via an FALCON 9 launch vehicle from the Air Force Western Test Range (AFWTR). Payload-class satellites include a variety of spacecraft equipped with specific instruments for various scientific and technological missions. These include communications satellites like Starlink; space stations such as the ISS; scientific satellites like the Hubble; Earth observation satellites from companies like Planet Labs, Umbra, and HawkEye 360; GPS; miniature CubeSats for education and research; and military/defense satellites.

Loading next visibility...
Identifier
60474, 2024-149G
Orbit
SSO
Country
Flag of USUS
Related business
Manufacturer
ARRAY
Mission
Operational Commercial Technology
Bus & Motor
CUBESAT 1.5U, Unknown motor
Mass
1.83 kg wet, 1.83 kg dry
Launch date (UTC)
2024-08-16 (1 year ago)
Launch vehicle
FALCON 9
Launch site
Air Force Western Test Range (AFWTR)
Object type
Payload
Rocket body
Debris
Shape & HBR
Box, 0.1 m
Radar Cross Section
0.015 m², Small (<0.1 m²)

Expand to show TLE details & history
Last TLE update: 13 hours ago

TLE from 13 hours ago
0 ROCK
1 60474U 24149G   25340.88335106  .00022066  00000-0  68864-3 0  9990
2 60474  97.3966  58.5107 0001338 170.8195 189.3072 15.33222571 72735
Epoch: 2025-12-06T21:12Z
TLE epoch observation values (Epoch: 2025-12-06T21:12:01.531Z)
Latitude
-0.00003°
Longitude
24.59963°
Altitude
470.217 km
Speed
7.63 km/s
True Right ascension
03h 54m 02s
True Declination
0° 00' 00"
Sunlit
Object was in full shadow at epoch
Visualization orbit readout
Latitude
Unknown
Longitude
Unknown
Altitude
Unknown
Speed
Unknown
Apparent Right ascension
Unknown
Apparent Declination
Unknown
Sunlit
N/A
Visualization observer readout
Local Sidereal Time
08:38:21
Azimuth
Unknown
Elevation
Unknown
Doppler factor
Unknown
Orbital elements
Apogee altitude
464.068 km
Perigee altitude
462.238 km
Semi-major axis
6,841.29 km
Eccentricity
0.00013
Inclination
97.3966°
RAAN
58.5107°
Arg. of periapsis
170.8195°
True anomaly
189.30472°
Mean anomaly
189.3072°
Eccentric anomaly
189.30596°
Mean motion
3.83563 °/min
Orbital period
93.86 mins
BSTAR
0.00068864
Loading maneuver chart data...
Computing Atmospheric mass density...
Loading historical data...
Loading historical data...
Loading historical data...
Loading historical data...
Loading historical data...
Loading historical data...
Loading historical data...

Documentation

Showing up to 5 results
|